| time (UTC) | temp F | wind direction | speed MPH | gust MPH | rain 1hr in | rain 24hr in | rain mn in | humidity % | barometer mb |
| 20260507224539 | 83 | 207 | 0.0 | 6.0 | 0.00 | 0.00 | 0.00 | 14 | 1005.5 |
| 20260507223033 | 83 | 207 | 0.0 | 3.0 | 0.00 | 0.00 | 0.00 | 15 | 1005.6 |
| 20260507221534 | 81 | 207 | 1.0 | 7.0 | 0.00 | 0.00 | 0.00 | 15 | 1005.8 |
| 20260507220029 | 80 | 206 | 3.0 | 7.0 | 0.00 | 0.00 | 0.00 | 15 | 1005.9 |
| 20260507214528 | 81 | 160 | 5.0 | 11.0 | 0.00 | 0.00 | 0.00 | 15 | 1006.1 |
| 20260507213031 | 82 | 61 | 2.0 | 5.0 | 0.00 | 0.00 | 0.00 | 16 | 1006.2 |
| 20260507211525 | 80 | 63 | 4.0 | 9.0 | 0.00 | 0.00 | 0.00 | 16 | 1006.6 |
| 20260507210020 | 80 | 63 | 0.0 | 7.0 | 0.00 | 0.00 | 0.00 | 18 | 1006.9 |
| 20260507204519 | 79 | 55 | 1.0 | 7.0 | 0.00 | 0.00 | 0.00 | 20 | 1007.0 |
| 20260507203018 | 79 | 55 | 4.0 | 10.0 | 0.00 | 0.00 | 0.00 | 19 | 1007.0 |
| 20260507201515 | 79 | 21 | 1.0 | 10.0 | 0.00 | 0.00 | 0.00 | 19 | 1007.3 |
| 20260507200022 | 79 | 17 | 0.0 | 9.0 | 0.00 | 0.00 | 0.00 | 19 | 1007.8 |
| 20260507194510 | 78 | 17 | 0.0 | 8.0 | 0.00 | 0.00 | 0.00 | 20 | 1008.0 |
| 20260507193008 | 78 | 17 | 0.0 | 8.0 | 0.00 | 0.00 | 0.00 | 21 | 1008.2 |
| 20260507191507 | 77 | 15 | 1.0 | 8.0 | 0.00 | 0.00 | 0.00 | 20 | 1008.5 |
| 20260507190010 | 76 | 15 | 0.0 | 8.0 | 0.00 | 0.00 | 0.00 | 20 | 1008.9 |
| 20260507184600 | 76 | 16 | 0.0 | 8.0 | 0.00 | 0.00 | 0.00 | 20 | 1009.0 |
| 20260507183100 | 75 | 14 | 0.0 | 5.0 | 0.00 | 0.00 | 0.00 | 21 | 1009.2 |
| 20260507181553 | 74 | 15 | 0.0 | 5.0 | 0.00 | 0.00 | 0.00 | 22 | 1009.5 |
| 20260507180053 | 74 | 15 | 1.0 | 8.0 | 0.00 | 0.00 | 0.00 | 21 | 1009.7 |
| 20260507174548 | 73 | 15 | 0.0 | 6.0 | 0.00 | 0.00 | 0.00 | 23 | 1009.8 |
| 20260507173052 | 73 | 14 | 1.0 | 9.0 | 0.00 | 0.00 | 0.00 | 23 | 1009.9 |
| 20260507171542 | 72 | 11 | 2.0 | 6.0 | 0.00 | 0.00 | 0.00 | 24 | 1010.0 |
| 20260507170036 | 71 | 10 | 0.0 | 6.0 | 0.00 | 0.00 | 0.00 | 24 | 1010.3 |